Погода Остров Голомянный

Погода Остров Голомянный : погода сейчас, прогноз погоды и архив. Всё, что Вы хотите узнать о погоде Остров Голомянный!

Хотите узнать прогноз погоды Остров Голомянный? Тогда Вам сюда: Погода Остров Голомянный

Поиск расширенной информации на нашем сайте:

Полезная информация:

Другие новости

Новости СМИ2

Главная страница сайта

Новости сайта

03.07.2017

Напоминаем, что на нашем специализированном сайте Метеоцентр.Азия вы можете получить высокодетализированные автоматические прогнозы погоды по пунктам России, СНГ и мира в авиационном формате (включающие направление и скорость ветра, видимость, явления погоды, количество и форму облачности, нижнюю и верхнюю границу облачности).

Рекомендуем:

Погода Остров Голомянный - сегодня

Время (UTC), дата Ветер
(°,м/с) 
Видим.   Явления Облачность Т
(°С)
Тd
(°С)
f(%) Тe
(°С)
Pmin
(гПа)
dP
(гПа)
Po
(мм)
O2
(г/м3)
Тmin Tmax R s Состояние
почвы
03 19.03.19 300 (СЗ) 6{11}  20000 м  позёмок  1/0 средняя 
[Ac trans]
-22.3 -25 79 -30  1007  2.3  754  333  -22.3         
06 19.03.19 310 (СЗ) 8{11}  20000 м  позёмок{снег}  4/0 средняя, верхняя 
[Ac trans|Ci fib]
-23.3 -26.4 76 -33  1009.1  2.1  756  335           
09 19.03.19 290 (З) 20000 м    3/0 верхняя 
[Ci fib]
-23.6 -26.4 78 -30  1011.1  758  336           
12 19.03.19 230 (ЮЗ) 20000 м    9/0 средняя 
[Ac trans]
-21.2 -23.9 79 -28  1011.1  758  333    -15.8  0.0     
15 19.03.19 220 (ЮЗ) 20000 м  позёмок  10/0 средняя, верхняя 
[Ac trans|Ci fib]
-19.5 -22.8 75 -27  1009.5  -1.6  756  330           
18 19.03.19 230 (ЮЗ) 9-11{12}  20000 м  позёмок  10/0 средняя 
[Ac und]
-6.5 -19.3 35 -13  1007.8  -1.7  755  313           
21 19.03.19 240 (ЮЗ) 10-13{13}  20000 м  позёмок  10/10 570 м 
[Sc]
-12.8 -14.8 85 -21  1006.3  -1.5  754  320           
00 20.03.19 240 (ЮЗ) 8-11{14}  2000 м  снег  10/6 100 м средняя 
[Frnb|As op]
-12.5 -14.5 85 -19  1004.2  -2.1  752  319  -21.2    0.3  25  неравномерный
сухой снег
100% 
03 20.03.19 250 (З) 7-10{12}  20000 м  позёмок{снег}  10/0 средняя 
[Ac und]
-11.6 -13.5 86 -18  1002.9  -1.3  751  317           
06 20.03.19 290 (З) 6{11}  20000 м  позёмок{снег}  3/0 средняя 
[Ac lent]
-18.6 -21.5 78 -26  1003.3  0.4  752  327           
09 20.03.19 320 (СЗ) 9-11{12}  20000 м  позёмок  10/0 средняя 
[Ac und]
-19 -22.3 75 -28  1004.3  752  327           
12 20.03.19 320 (СЗ) 9-11{12}  20000 м  позёмок  10/0 средняя 
[Ac und]
-21.3 -24.7 74 -31  1006.4  2.1  754  331    -11.4  0.0     
15 20.03.19 310 (СЗ) 7{11}  20000 м  позёмок  10/0 средняя 
[Ac und]
-19.9 -22.8 78 -28  1007.6  1.2  755  330           
18 20.03.19 310 (СЗ) 7{10}  20000 м  позёмок  10/6 420 м средняя 
[Sc|Ac und]
-19.9 -22.5 80 -28  1008.3  0.7  755  330           
21 20.03.19 310 (СЗ) 7{10}  20000 м  позёмок  ясно 
-24.7 -27.4 78 -34  1008.5  0.2  756  337           
00 21.03.19 320 (СЗ) 20000 м    ясно 
-26.5 -29.5 76 -34  1008.3  -0.2  755  339  -26.7      25  неравномерный
сухой снег
100% 
03 21.03.19 340 (С) 20000 м    ясно 
-27.7 -30.8 75 -34  1008.3  -0.1  755  341  -27.9         
06 21.03.19 340 (С) 20000 м    1/0 верхняя 
[Ci fib]
-28.2 -31.3 75 -35  1008  -0.3  755  341           
09 21.03.19 350 (С) 20000 м    1/0 верхняя 
[Ci fib]
-28.5 -31.7 74 -35  1008.7  0.7  756  342           
12 21.03.19 350 (С) 20000 м    3/0 верхняя 
[Ci fib]
-29.1 -32.3 74 -36  1009.4  0.7  756  343    -26.5       
15 21.03.19 350 (С) 20000 м    1/0 верхняя 
[Ci fib]
-30.7 -34 73 -36  1009.6  0.2  756  345           
18 21.03.19 310 (СЗ) 20000 м    1/0 верхняя 
[Ci fib]
-31.2 -34.4 73 -35  1009.8  0.2  756  346           
21 21.03.19 310 (СЗ) 20000 м    ясно 
-31.2 -34.4 73 -38  1009.9  0.1  757  346           
00 22.03.19 330 (СЗ) 20000 м    3/0 средняя, верхняя 
[Ac trans|Ci fib]
-30.8 -34.1 73 -35  1010  0.2  757  346  -31.8      26  неравномерный
сухой снег
100% 
03 22.03.19 310 (СЗ) 20000 м    8/0 верхняя 
[Ci fib]
-30.6 -33.9 73 -36  1010.5  0.4  757  345           
Время (UTC), дата Ветер
(°,м/с) 
Видим.   Явления Облачность Т
(°С)
Тd
(°С)
f(%) Тe
(°С)
Pmin
(гПа)
dP
(гПа)
Po
(мм)
O2
(г/м3)
Тmin Tmax R s Состояние
почвы

Для получения пояснительной информации подведите курсор к названию столбца.

ПОГОДА Остров Голомянный - архив

Всё, что Вы хотите узнать о погоде Остров Голомянный - удобно и подробно!

Выберите нужную дату (начиная с 1 января 2018* года) и нажмите кнопку "Найти".
Будут отображены архивные сводки погоды по пункту Остров Голомянный, начиная с указанной даты.


Отображать данные в формате CSV (для использования в таблицах Excel)


Внимание! Наш архив погоды предназначен исключительно для личного некоммерческого использования в познавательных целях. Если Вам необходимы официальные справки о состоянии погоды (для производственных, юридических, коммерческих и т.п. целей), обращайтесь в органы Росгидромета.

*Примечание: данная дата относится к архиву по метеостанциям СССР (Россия, СНГ, Балтия).
Архив по метеостанциям Зарубежной Европы и Азии (кроме Китая) хранится 10 дней, по другим регионам земного шара (Китай, Африка, Америка, Австралия, Океания) - 1 день.

Остров Голомянный - район местоположения метеостанции


Название, широта, долгота, высота метеостанции:
Остров Голомянный 79.6°ш. 90.6°д. 8 м над ур. моря [Российская Федерация]

Дополнительная информация

В oтличие oт бoльшинства пoгoдных сайтoв мы публикуем пoдрoбную метеoинфoрмацию в детальнoм прoфессиoнальнoм фoрмате.

Характеристики температуры и влажнoсти вoздуха измеряются на высoте 2 м в тени вдали oт зданий и деревьев.
Скoрoсть ветра измеряется на высoте 10 м (на урoвне рoста челoвека скoрoсть ветра ниже в 1.5-2 раза). Если метеoстанция нахoдится в гoрoде или в лесу, тo скoрoсть ветра занижена на 2-4 м/с пo сравнению с oткрытым местoм. Скoрoсть ветра над акватoриями крупных рек и oзёр, а также на вершинах хoлмoв на 2-5 м/с выше, чем в oбычных услoвиях.
Атмoсфернoе давление в разных тoчках местнoсти мoжет значительнo oтличаться oт давления на метеoстанции, в зависимoсти oт услoвий рельефа (при пoдъёме на 10 м давление пoнижается примернo на 1 мм рт.ст.).